Wind_Speed
39 40 40 41 41 41 41 42 43 44 44 43 43 43 43 43 43 43 44 44 44 45 44 43 42 42 42 42 41 40 39 39 38 38 37 37 37 37 36 36 36 36 35
39 39 38 40 41 41 41 42 44 45 45 45 44 43 43 44 43 42 44 45 44 45 45 44 43 43 43 42 42 42 41 41 40 40 39 39 39 39 38 38 38 37 37
38 38 38 39 40 41 42 42 42 43 44 45 45 45 44 45 45 45 44 45 45 46 46 45 44 44 44 43 43 43 42 42 42 42 41 41 40 40 40 40 40 39 39
38 38 38 39 40 40 41 42 43 44 45 46 45 45 45 46 46 46 47 46 46 46 46 46 45 45 44 43 43 43 43 43 43 43 43 43 42 42 42 41 41 40 40
37 38 39 39 41 41 42 43 44 45 45 46 46 46 46 46 47 47 46 46 46 47 47 46 46 45 45 45 45 45 44 44 43 42 43 44 44 43 43 42 41 41 42
36 38 39 39 40 42 43 44 45 45 46 47 47 48 48 48 48 48 46 46 46 47 47 47 46 46 46 47 47 47 46 45 45 45 44 44 45 44 44 43 42 42 42
36 37 38 39 39 40 42 44 44 45 46 47 48 49 49 48 48 48 47 46 46 47 47 47 47 47 47 47 47 47 47 47 47 47 47 46 46 46 46 46 44 44 44
35 36 37 38 38 39 40 42 43 44 46 46 47 47 48 48 48 48 48 47 46 47 47 48 47 47 47 47 47 48 48 48 49 49 48 48 47 47 47 47 47 46 45
34 35 37 38 38 38 40 41 42 43 44 45 46 47 47 48 48 48 48 48 47 47 48 49 49 48 48 48 48 48 48 49 49 49 48 49 49 48 48 48 47 47 46
34 35 36 37 38 38 38 39 41 42 44 45 46 46 47 47 48 48 49 49 48 47 48 49 50 49 50 50 49 49 49 49 49 49 49 48 48 48 48 48 49 49 49
33 34 35 35 36 38 39 40 41 41 42 44 45 46 47 47 48 48 49 49 48 48 48 48 49 50 51 50 50 49 49 50 50 51 50 50 49 49 49 49 49 49 49
33 33 34 34 35 36 38 39 41 42 43 44 46 46 47 47 47 47 48 48 48 48 48 48 49 51 51 51 50 50 50 51 50 51 51 51 51 51 51 50 50 50 50
33 34 35 35 35 36 36 38 39 41 42 43 45 46 47 48 48 48 49 50 49 49 49 50 50 50 50 51 51 51 51 51 51 51 51 51 52 52 52 52 52 52 52
34 33 35 35 36 36 37 37 38 40 41 42 43 44 45 47 47 48 49 50 50 49 49 49 50 50 51 52 52 52 52 51 51 51 52 52 52 52 53 53 54 54 53
34 35 35 35 36 36 37 38 38 39 40 41 42 43 44 45 46 46 47 48 49 49 49 49 50 49 50 51 52 52 52 52 52 52 52 53 53 54 54 54 55 55 55
34 35 34 34 34 35 36 36 37 38 39 39 40 41 42 43 44 44 45 47 48 48 49 50 50 50 50 51 51 52 52 52 52 52 53 53 54 55 55 55 56 56 55
34 34 34 34 34 34 35 35 36 36 36 36 37 38 39 40 41 42 43 45 46 47 48 49 49 50 51 51 52 52 52 53 53 52 53 53 53 54 55 55 56 56 56
32 33 33 33 33 33 33 34 35 35 36 37 37 38 38 39 40 41 43 44 45 46 46 47 49 50 51 51 52 52 53 53 53 53 53 53 53 53 54 55 55 55 55
30 30 31 32 32 32 33 33 34 35 36 37 38 38 38 39 40 41 42 43 44 45 46 47 48 49 50 51 51 53 53 53 53 52 53 53 52 52 53 55 55 56 56
30 30 31 32 32 33 32 32 33 34 35 36 37 39 39 39 39 40 42 43 44 45 46 46 47 48 49 50 52 53 53 53 53 53 52 52 52 52 53 54 54 55 55
31 31 32 32 33 33 33 33 33 34 35 36 37 38 39 40 40 41 42 43 44 45 46 46 47 48 48 49 51 52 53 53 52 52 51 52 53 53 53 52 53 53 53
32 33 33 33 33 33 33 34 34 34 35 36 37 38 39 40 41 41 42 43 43 44 45 46 46 46 46 47 48 50 51 51 51 50 50 50 50 51 51 51 52 52 53
32 33 33 33 33 33 33 33 34 34 35 36 36 37 38 39 40 41 42 43 43 43 44 44 44 44 44 45 46 47 48 49 49 49 49 49 49 49 49 50 50 51 51
32 33 33 33 32 33 33 34 34 33 34 34 35 35 36 38 38 39 40 40 40 41 42 42 42 42 42 43 44 45 45 46 47 48 48 48 48 48 48 48 48 48 49
31 31 31 31 31 32 33 33 33 33 32 33 34 34 35 35 36 37 37 37 38 38 39 40 40 40 40 41 42 43 44 44 45 45 46 47 47 47 46 46 46 47 48
29 29 30 30 30 31 31 31 31 32 31 32 32 32 32 32 33 33 34 34 36 37 37 38 39 39 40 41 42 43 42 42 42 44 45 45 45 46 45 45 46 46 47
Wind_Direction
256 254 254 253 253 252 251 250 249 248 249 248 248 248 248 248 247 247 246 246 246 247 247 247 248 248 248 248 249 250 251 251 253 254 254 254 255 257 257 258 259 260 261
256 255 255 255 253 252 250 250 249 248 249 249 249 249 247 247 247 246 246 246 246 247 247 248 248 249 248 249 250 251 252 253 253 254 255 256 256 257 258 259 259 259 260
256 255 255 255 253 252 252 251 249 248 248 248 249 248 247 248 248 248 247 246 247 248 247 248 248 249 249 250 251 253 253 254 254 255 256 257 257 258 258 258 259 259 260
257 256 255 255 254 253 253 252 250 249 249 249 248 248 248 249 250 250 250 248 247 247 248 248 248 249 249 250 250 252 252 254 255 255 256 257 257 258 258 258 259 260 260
258 256 256 255 255 253 252 251 251 250 249 248 248 248 249 249 249 250 251 250 248 248 248 249 249 248 249 250 251 251 253 254 254 256 256 256 257 257 257 257 258 258 260
259 257 257 256 256 255 253 252 251 250 249 248 248 249 250 249 249 249 250 249 248 247 247 248 249 249 250 251 252 253 254 254 255 255 256 256 256 256 256 257 257 258 259
261 259 258 257 257 256 255 253 251 249 249 249 249 249 250 250 249 249 249 249 250 249 248 248 250 251 251 252 253 253 254 255 255 255 255 255 255 255 256 257 259 259 259
263 261 260 259 259 257 257 255 251 250 249 248 249 249 249 250 250 250 249 250 250 250 249 249 250 251 252 252 253 254 255 256 256 255 254 254 254 255 256 257 259 259 259
264 263 262 261 261 260 257 255 253 250 250 249 249 248 249 249 250 250 250 250 250 251 250 250 250 251 252 252 252 253 255 255 255 254 254 255 256 257 257 257 258 259 260
267 266 265 263 261 260 258 254 252 251 250 250 250 250 250 250 250 250 251 250 251 251 251 250 251 252 252 252 253 254 254 254 254 254 254 256 257 258 258 258 258 260 262
268 266 266 265 263 262 258 255 253 252 251 251 251 250 250 250 251 251 251 251 251 251 251 251 251 251 252 252 253 253 254 254 254 254 255 256 257 258 259 260 260 261 262
269 266 266 266 264 263 260 257 255 254 253 252 251 251 252 251 252 252 252 251 252 252 252 252 252 252 252 252 252 253 253 253 254 254 255 256 257 258 259 260 261 261 263
270 267 267 267 264 263 261 260 258 257 255 253 252 253 253 253 253 253 253 253 253 253 252 252 252 251 251 251 252 253 253 254 254 255 256 256 257 258 259 260 262 262 263
270 269 269 268 266 263 262 261 259 259 257 255 254 254 253 252 252 253 253 253 253 253 251 251 251 252 252 252 252 253 254 255 256 257 258 257 258 258 259 261 262 263 263
271 270 270 268 267 265 264 262 261 261 260 257 254 254 254 253 252 252 252 253 253 252 252 252 252 253 253 252 252 253 254 256 258 259 259 259 259 260 260 261 262 263 263
274 273 272 269 268 267 266 264 262 261 259 258 255 254 254 253 252 253 253 253 253 253 253 253 253 253 253 253 253 254 255 257 258 259 260 260 261 261 262 263 263 263 264
276 274 272 270 270 268 267 265 263 261 259 257 254 253 253 253 252 253 254 254 254 254 254 254 253 253 253 253 254 255 256 258 258 259 261 261 261 262 262 262 262 263 264
277 275 274 273 271 269 267 266 264 262 260 259 257 256 255 254 254 255 255 256 256 257 257 256 256 255 255 255 255 256 257 258 259 260 261 261 261 263 262 261 262 263 264
278 275 275 274 273 270 268 265 264 262 261 261 258 257 256 255 255 256 257 257 257 258 259 259 259 258 257 256 256 256 257 257 258 259 260 261 261 262 263 262 262 262 263
278 275 275 275 274 272 269 268 265 264 263 262 260 258 258 258 257 258 258 259 259 260 261 261 261 260 259 258 258 257 257 258 259 260 261 262 262 263 263 263 264 263 264
278 277 276 276 274 272 271 270 269 267 266 264 261 260 260 259 260 260 261 261 261 262 262 262 262 261 260 260 259 258 258 258 259 260 261 262 262 263 264 264 265 265 266
278 278 278 276 275 273 272 272 271 269 267 266 263 261 261 261 262 262 262 263 263 263 263 263 262 262 261 260 259 258 258 259 259 259 260 262 262 263 264 265 265 266 267
280 280 279 277 275 272 272 273 273 272 270 268 266 265 263 263 263 263 264 264 263 263 262 262 261 262 261 261 260 260 259 259 259 259 260 261 262 262 264 265 265 266 266
283 282 281 278 274 273 273 274 275 274 274 271 270 269 266 264 264 264 264 264 264 262 262 261 260 261 260 260 260 260 260 259 259 260 260 261 262 264 265 266 266 267 267
286 285 283 280 277 275 274 275 275 275 275 274 272 271 269 267 265 265 265 264 263 263 261 259 259 259 260 260 260 261 262 261 260 259 260 261 262 263 265 266 267 268 268
287 286 285 282 279 277 276 276 275 275 274 274 273 273 271 270 268 267 266 265 265 263 261 261 261 260 260 261 261 261 261 260 260 260 261 261 262 262 264 265 266 267 268
Height
5678 5680 5682 5684 5685 5688 5691 5693 5695 5698 5701 5704 5707 5710 5712 5715 5718 5721 5724 5727 5731 5734 5737 5741 5744 5747 5750 5753 5756 5759 5762 5765 5767 5769 5771 5773 5775 5777 5778 5780 5782 5783 5785
5668 5670 5672 5673 5675 5677 5680 5682 5685 5687 5690 5693 5696 5699 5702 5704 5707 5710 5713 5717 5720 5724 5727 5731 5734 5737 5740 5744 5747 5749 5752 5755 5757 5760 5762 5764 5767 5768 5769 5771 5773 5774 5776
5659 5661 5662 5663 5665 5667 5669 5672 5674 5677 5679 5682 5685 5688 5691 5694 5697 5700 5703 5706 5710 5713 5717 5721 5724 5727 5730 5734 5737 5739 5742 5745 5747 5749 5752 5754 5756 5758 5760 5761 5763 5765 5766
5649 5651 5652 5654 5655 5657 5659 5661 5663 5666 5669 5671 5675 5678 5681 5684 5687 5689 5692 5695 5699 5702 5706 5710 5714 5717 5720 5723 5726 5729 5732 5734 5737 5739 5741 5744 5745 5748 5750 5752 5753 5755 5756
5639 5641 5642 5643 5645 5646 5648 5650 5652 5655 5657 5660 5664 5667 5670 5673 5676 5678 5681 5684 5687 5691 5695 5699 5702 5706 5709 5712 5715 5718 5721 5723 5726 5728 5730 5732 5734 5736 5738 5741 5743 5745 5746
5629 5631 5632 5633 5634 5635 5637 5639 5641 5644 5646 5649 5652 5655 5659 5662 5664 5667 5670 5673 5676 5679 5684 5687 5691 5695 5698 5701 5704 5707 5709 5712 5714 5717 5719 5721 5723 5725 5727 5729 5732 5734 5735
5620 5621 5622 5623 5624 5625 5626 5628 5630 5632 5635 5638 5641 5644 5647 5650 5653 5656 5659 5662 5665 5669 5672 5676 5680 5683 5686 5689 5692 5695 5697 5700 5702 5705 5707 5709 5712 5714 5716 5718 5720 5722 5724
5610 5611 5611 5612 5613 5614 5615 5617 5619 5621 5624 5626 5629 5632 5635 5639 5642 5645 5647 5651 5654 5657 5661 5664 5668 5671 5674 5677 5680 5683 5685 5688 5691 5693 5695 5698 5700 5702 5704 5706 5708 5710 5713
5600 5601 5601 5602 5603 5603 5604 5606 5607 5610 5612 5615 5618 5621 5624 5627 5630 5633 5636 5639 5642 5646 5649 5652 5656 5659 5662 5664 5667 5670 5673 5676 5678 5681 5683 5686 5688 5690 5692 5694 5696 5698 5700
5590 5591 5591 5591 5592 5593 5593 5594 5596 5598 5601 5603 5606 5609 5612 5615 5618 5621 5624 5628 5631 5634 5636 5640 5643 5646 5649 5652 5655 5658 5660 5663 5666 5669 5671 5673 5675 5677 5679 5681 5683 5684 5687
5580 5580 5581 5581 5581 5582 5582 5583 5585 5587 5589 5592 5594 5597 5599 5602 5605 5608 5612 5615 5618 5621 5624 5627 5630 5633 5636 5639 5642 5645 5648 5651 5653 5656 5658 5661 5663 5665 5666 5668 5670 5671 5673
5570 5570 5570 5571 5571 5571 5572 5573 5574 5576 5578 5580 5582 5585 5587 5590 5593 5596 5599 5603 5606 5609 5612 5614 5617 5620 5623 5626 5629 5632 5635 5637 5640 5643 5645 5647 5649 5652 5653 5655 5656 5658 5659
5561 5560 5560 5560 5561 5561 5561 5562 5563 5564 5566 5567 5570 5572 5575 5578 5581 5584 5587 5590 5593 5596 5598 5601 5604 5607 5609 5612 5615 5618 5621 5624 5626 5629 5631 5633 5635 5638 5639 5641 5643 5644 5645
5551 5551 5551 5550 5550 5551 5551 5551 5552 5552 5554 5555 5557 5560 5562 5565 5568 5571 5573 5576 5579 5582 5585 5587 5590 5593 5596 5599 5602 5604 5607 5610 5612 5614 5617 5619 5621 5623 5625 5626 5628 5629 5631
5542 5541 5541 5540 5540 5540 5541 5541 5541 5542 5543 5544 5546 5548 5550 5552 5555 5558 5560 5563 5566 5569 5571 5574 5577 5579 5582 5585 5587 5590 5593 5595 5598 5600 5602 5604 5606 5608 5610 5611 5613 5614 5615
5533 5532 5531 5531 5530 5530 5530 5530 5530 5531 5532 5533 5535 5536 5538 5540 5543 5545 5547 5550 5553 5555 5558 5561 5563 5566 5568 5571 5573 5576 5578 5581 5583 5585 5587 5589 5591 5593 5594 5595 5597 5598 5600
5523 5522 5522 5521 5520 5520 5520 5520 5520 5520 5521 5522 5523 5525 5527 5529 5531 5533 5535 5538 5540 5542 5544 5547 5549 5552 5554 5556 5558 5561 5563 5565 5568 5570 5572 5574 5575 5577 5578 5580 5581 5582 5584
5514 5513 5512 5511 5511 5510 5509 5509 5509 5510 5510 5511 5513 5514 5516 5518 5519 5521 5523 5525 5527 5529 5531 5533 5535 5538 5540 5541 5543 5545 5548 5550 5553 5555 5557 5559 5560 5561 5562 5564 5565 5567 5569
5505 5504 5503 5502 5501 5500 5499 5499 5499 5499 5500 5501 5502 5503 5505 5507 5508 5510 5512 5513 5515 5517 5518 5520 5522 5523 5525 5527 5528 5530 5533 5535 5538 5540 5542 5543 5545 5546 5547 5548 5550 5552 5553
5496 5495 5494 5493 5492 5491 5490 5489 5489 5489 5489 5490 5491 5493 5494 5496 5497 5499 5500 5501 5503 5504 5505 5507 5508 5509 5511 5512 5514 5515 5518 5521 5523 5525 5527 5529 5530 5530 5531 5532 5534 5536 5537
5488 5486 5485 5484 5483 5481 5480 5480 5479 5479 5479 5479 5480 5482 5483 5484 5485 5487 5488 5488 5490 5491 5492 5493 5495 5495 5497 5497 5499 5500 5502 5505 5508 5510 5512 5514 5514 5515 5516 5517 5519 5520 5521
5479 5477 5476 5475 5473 5472 5471 5470 5470 5469 5469 5469 5469 5470 5471 5472 5473 5474 5475 5475 5476 5477 5478 5479 5480 5481 5482 5483 5484 5485 5487 5490 5492 5495 5497 5498 5499 5500 5501 5502 5504 5505 5505
5469 5468 5466 5465 5464 5462 5461 5460 5460 5459 5458 5458 5459 5459 5459 5460 5460 5461 5462 5462 5463 5463 5464 5465 5466 5467 5468 5469 5470 5471 5473 5475 5477 5480 5482 5483 5484 5485 5487 5488 5489 5490 5490
5460 5458 5457 5455 5454 5453 5452 5451 5450 5449 5448 5448 5448 5448 5448 5448 5448 5448 5449 5449 5449 5450 5450 5451 5452 5454 5455 5456 5457 5458 5459 5461 5463 5465 5466 5468 5469 5471 5472 5474 5475 5475 5476
5452 5449 5447 5446 5444 5443 5442 5441 5440 5439 5438 5438 5437 5437 5437 5437 5437 5436 5436 5437 5437 5437 5438 5439 5440 5441 5443 5443 5444 5445 5447 5448 5449 5451 5452 5454 5456 5458 5459 5460 5461 5461 5462
5443 5441 5439 5436 5435 5433 5432 5431 5430 5430 5429 5428 5428 5427 5427 5426 5426 5426 5426 5425 5426 5425 5426 5426 5427 5428 5430 5431 5431 5432 5433 5434 5436 5437 5439 5441 5443 5445 5446 5447 5447 5448 5448